This is the latest recevied weather packets stored in our database for station/object KE0TNI-13. If no packets are shown the sender has not sent any weather packets the latest 10 day(s).
| Time | Temp. | Humidity | Pressure | Rain* | Wind** | Luminosity | Snow |
|---|---|---|---|---|---|---|---|
| 1777912275 | 11.67° C | 32% | 1015.6 hPa | 0 mm | - | 256 W/m² | - |
| 1777911971 | 11.67° C | 33% | 1015.8 hPa | 0 mm | - | 253 W/m² | - |
| 1777911667 | 12.22° C | 32% | 1015.9 hPa | 0 mm | - | 205 W/m² | - |
| 1777911363 | 12.22° C | 34% | 1015.8 hPa | 0 mm | - | 199 W/m² | - |
| 1777911062 | 12.22° C | 34% | 1015.9 hPa | 0 mm | - | 193 W/m² | - |
| 1777910758 | 11.67° C | 34% | 1016.1 hPa | 0 mm | - | 191 W/m² | - |
| 1777910455 | 11.11° C | 35% | 1016.3 hPa | 0 mm | - | 202 W/m² | - |
| 1777910151 | 11.11° C | 34% | 1016.3 hPa | 0 mm | - | 210 W/m² | - |
| 1777909849 | 11.11° C | 35% | 1016.5 hPa | 0 mm | - | 212 W/m² | - |
| 1777909545 | 10.56° C | 36% | 1016.5 hPa | 0 mm | - | 209 W/m² | - |
| 1777909243 | 10.56° C | 36% | 1016.5 hPa | 0 mm | - | 208 W/m² | - |
| 1777908941 | 10° C | 37% | 1016.5 hPa | 0 mm | - | 209 W/m² | - |
| 1777908639 | 10° C | 37% | 1016.3 hPa | 0 mm | - | 201 W/m² | - |
| 1777908335 | 10° C | 38% | 1016.5 hPa | 0 mm | - | 187 W/m² | - |
| 1777908032 | 10° C | 37% | 1016.6 hPa | 0 mm | - | 175 W/m² | - |
| 1777907728 | 9.44° C | 37% | 1016.5 hPa | 0 mm | - | 162 W/m² | - |
| 1777907428 | 9.44° C | 37% | 1016.6 hPa | 0 mm | - | 152 W/m² | - |
| 1777907125 | 9.44° C | 37% | 1016.5 hPa | 0 mm | - | 138 W/m² | - |
| 1777906823 | 9.44° C | 37% | 1016.9 hPa | 0 mm | - | 133 W/m² | - |
| 1777906521 | 9.44° C | 36% | 1016.7 hPa | 0 mm | - | 125 W/m² | - |
| 1777906221 | 9.44° C | 36% | 1016.6 hPa | 0 mm | - | 132 W/m² | - |
| 1777905918 | 9.44° C | 36% | 1016.6 hPa | 0 mm | - | 124 W/m² | - |
| 1777905614 | 9.44° C | 36% | 1016.6 hPa | 0 mm | - | 117 W/m² | - |
| 1777905311 | 9.44° C | 35% | 1016.5 hPa | 0 mm | - | 119 W/m² | - |
| 1777905009 | 9.44° C | 34% | 1016.3 hPa | 0 mm | - | 111 W/m² | - |
* Rain latest hour (hover to see other rain measurements)
** Current wind speed in m/s (hover to see current wind gust speed)